When you browse on this site, cookies collect data to enhance your experience and personalize the content and advertising you see.
Visit our Privacy Policy to learn more. By continuing to use the site, you agree to this use of cookies and data.
  • en Suisse
  • Liste des pays
  • À 7 jours
  • Température de l'eau
  • Carte satellitaire
  • Carte météo
  • Widgets météo
  • user-avatar
    Se connecter

    Météo par heure à Maloe Sonino

    Ce jour, 20 Juin, Jeudi

    Heure Température Précipitation Vent Pression Humidité
    00:00 +18°C° 0 mm 1 m/s 748 mmHg 80%
    01:00 +16°C° 0 mm 1 m/s 748 mmHg 81%
    02:00 +16°C° 0 mm 1 m/s 748 mmHg 77%
    03:00 +18°C° 0 mm 1 m/s 748 mmHg 78%
    04:00 +16°C° 0 mm 0 m/s 748 mmHg 78%
    05:00 +17°C° 0 mm 0 m/s 749 mmHg 79%
    06:00 +19°C° 0 mm 0 m/s 749 mmHg 74%
    07:00 +21°C° 0 mm 0 m/s 749 mmHg 69%
    08:00 +22°C° 0 mm 0 m/s 749 mmHg 64%
    09:00 +25°C° 0 mm 1 m/s 749 mmHg 60%
    10:00 +26°C° 0 mm 1 m/s 749 mmHg 55%
    11:00 +28°C° 0 mm 1 m/s 749 mmHg 51%
    12:00 +28°C° 0 mm 1 m/s 748 mmHg 50%
    13:00 +28°C° 0 mm 1 m/s 748 mmHg 49%
    14:00 +28°C° 0 mm 2 m/s 748 mmHg 48%
    15:00 +28°C° 0 mm 1 m/s 748 mmHg 52%
    16:00 +28°C° 0 mm 1 m/s 748 mmHg 57%
    17:00 +28°C° 0 mm 1 m/s 748 mmHg 62%
    18:00 +26°C° 0 mm 1 m/s 748 mmHg 66%
    19:00 +23°C° 0 mm 1 m/s 748 mmHg 70%
    20:00 +21°C° 0 mm 1 m/s 748 mmHg 74%
    21:00 +21°C° 0 mm 1 m/s 748 mmHg 76%
    22:00 +20°C° 0 mm 1 m/s 748 mmHg 78%
    23:00 +19°C° 0 mm 1 m/s 748 mmHg 80%

    Demain, 21 Juin, Vendredi

    Heure Température Précipitation Vent Pression Humidité
    00:00 +19°C° 0 mm 1 m/s 748 mmHg 81%
    01:00 +18°C° 0 mm 1 m/s 749 mmHg 82%
    02:00 +18°C° 0 mm 1 m/s 749 mmHg 82%
    03:00 +18°C° 0 mm 1 m/s 749 mmHg 83%
    04:00 +19°C° 0 mm 1 m/s 749 mmHg 83%
    05:00 +19°C° 0 mm 1 m/s 749 mmHg 83%
    06:00 +20°C° 0 mm 2 m/s 749 mmHg 79%
    07:00 +21°C° 0 mm 2 m/s 749 mmHg 75%
    08:00 +24°C° 0 mm 2 m/s 749 mmHg 71%
    09:00 +25°C° 0 mm 3 m/s 749 mmHg 69%
    10:00 +26°C° 0 mm 3 m/s 749 mmHg 66%
    11:00 +27°C° 0 mm 3 m/s 749 mmHg 63%
    12:00 +28°C° 0 mm 4 m/s 749 mmHg 62%
    13:00 +28°C° 0 mm 4 m/s 749 mmHg 61%
    14:00 +29°C° 0 mm 4 m/s 749 mmHg 60%
    15:00 +28°C° 0 mm 4 m/s 748 mmHg 63%
    16:00 +28°C° 0 mm 4 m/s 748 mmHg 67%
    17:00 +27°C° 0 mm 3 m/s 748 mmHg 70%
    18:00 +26°C° 0 mm 3 m/s 748 mmHg 75%
    19:00 +24°C° 0 mm 3 m/s 748 mmHg 79%
    20:00 +22°C° 0 mm 3 m/s 748 mmHg 83%
    21:00 +21°C° 0 mm 3 m/s 748 mmHg 84%
    22:00 +20°C° 0 mm 3 m/s 748 mmHg 85%
    23:00 +20°C° 0 mm 3 m/s 748 mmHg 86%

    Après-demain, 22 Juin, Samedi

    Heure Température Précipitation Vent Pression Humidité
    00:00 +19°C° 0 mm 3 m/s 748 mmHg 88%
    01:00 +19°C° 0 mm 3 m/s 748 mmHg 89%
    02:00 +18°C° 0 mm 3 m/s 748 mmHg 91%
    03:00 +19°C° 0 mm 3 m/s 749 mmHg 90%
    04:00 +19°C° 0 mm 3 m/s 749 mmHg 89%
    05:00 +20°C° 0 mm 3 m/s 749 mmHg 88%
    06:00 +21°C° 0 mm 3 m/s 749 mmHg 84%
    07:00 +24°C° 0 mm 3 m/s 749 mmHg 80%
    08:00 +25°C° 0 mm 4 m/s 749 mmHg 75%
    09:00 +26°C° 0.1 mm 4 m/s 749 mmHg 71%
    10:00 +28°C° 0.1 mm 4 m/s 749 mmHg 66%
    11:00 +29°C° 0.1 mm 4 m/s 749 mmHg 62%
    12:00 +29°C° 0 mm 5 m/s 749 mmHg 60%
    13:00 +29°C° 0 mm 5 m/s 748 mmHg 59%
    14:00 +29°C° 0 mm 5 m/s 748 mmHg 58%
    15:00 +29°C° 0 mm 4 m/s 748 mmHg 62%
    16:00 +29°C° 0 mm 4 m/s 748 mmHg 65%
    17:00 +28°C° 0 mm 3 m/s 748 mmHg 69%
    18:00 +27°C° 0 mm 3 m/s 748 mmHg 73%
    19:00 +25°C° 0 mm 3 m/s 748 mmHg 77%
    20:00 +24°C° 0 mm 2 m/s 748 mmHg 81%
    21:00 +23°C° 0 mm 2 m/s 748 mmHg 83%
    22:00 +21°C° 0 mm 2 m/s 748 mmHg 84%
    23:00 +20°C° 0 mm 2 m/s 748 mmHg 86%

    23 Juin, Dimanche

    Heure Température Précipitation Vent Pression Humidité
    00:00 +20°C° 0 mm 2 m/s 749 mmHg 88%
    01:00 +19°C° 0 mm 2 m/s 749 mmHg 89%
    02:00 +19°C° 0 mm 2 m/s 749 mmHg 91%
    03:00 +19°C° 0 mm 2 m/s 749 mmHg 90%
    04:00 +20°C° 0 mm 2 m/s 749 mmHg 89%
    05:00 +20°C° 0 mm 2 m/s 749 mmHg 88%
    06:00 +23°C° 0 mm 2 m/s 749 mmHg 83%
    07:00 +25°C° 0 mm 2 m/s 749 mmHg 78%
    08:00 +27°C° 0 mm 2 m/s 749 mmHg 73%
    09:00 +28°C° 0 mm 3 m/s 749 mmHg 67%
    10:00 +29°C° 0 mm 3 m/s 749 mmHg 62%
    11:00 +30°C° 0 mm 3 m/s 749 mmHg 57%
    12:00 +29°C° 0.3 mm 3 m/s 749 mmHg 58%
    13:00 +29°C° 0.3 mm 3 m/s 749 mmHg 60%
    14:00 +29°C° 0.3 mm 2 m/s 749 mmHg 62%
    15:00 +29°C° 1 mm 2 m/s 749 mmHg 66%
    16:00 +28°C° 1 mm 2 m/s 749 mmHg 71%
    17:00 +27°C° 1 mm 1 m/s 749 mmHg 75%
    18:00 +26°C° 0.3 mm 1 m/s 749 mmHg 78%
    19:00 +24°C° 0.3 mm 1 m/s 749 mmHg 81%
    20:00 +23°C° 0.3 mm 1 m/s 750 mmHg 84%
    21:00 +22°C° 0 mm 1 m/s 750 mmHg 86%
    22:00 +21°C° 0 mm 1 m/s 750 mmHg 89%
    23:00 +20°C° 0 mm 2 m/s 750 mmHg 91%

    24 Juin, Lundi

    Heure Température Précipitation Vent Pression Humidité
    00:00 +19°C° 0 mm 2 m/s 750 mmHg 93%
    01:00 +19°C° 0 mm 2 m/s 750 mmHg 95%
    02:00 +19°C° 0 mm 3 m/s 750 mmHg 96%
    03:00 +18°C° 0 mm 3 m/s 751 mmHg 95%
    04:00 +18°C° 0 mm 3 m/s 751 mmHg 93%
    05:00 +18°C° 0 mm 3 m/s 751 mmHg 92%
    06:00 +19°C° 0 mm 3 m/s 751 mmHg 88%
    07:00 +21°C° 0 mm 4 m/s 751 mmHg 84%
    08:00 +22°C° 0 mm 4 m/s 751 mmHg 80%
    09:00 +22°C° 0 mm 4 m/s 752 mmHg 75%
    10:00 +23°C° 0 mm 5 m/s 752 mmHg 71%
    11:00 +25°C° 0 mm 5 m/s 752 mmHg 66%
    12:00 +25°C° 0 mm 5 m/s 752 mmHg 65%
    13:00 +25°C° 0 mm 5 m/s 752 mmHg 64%
    14:00 +25°C° 0 mm 5 m/s 752 mmHg 64%
    15:00 +25°C° 0 mm 5 m/s 752 mmHg 65%
    16:00 +23°C° 0 mm 5 m/s 752 mmHg 66%
    17:00 +23°C° 0 mm 4 m/s 752 mmHg 67%
    18:00 +21°C° 0 mm 4 m/s 752 mmHg 69%
    19:00 +20°C° 0 mm 4 m/s 752 mmHg 72%
    20:00 +18°C° 0 mm 3 m/s 752 mmHg 74%
    21:00 +17°C° 0 mm 3 m/s 752 mmHg 72%
    22:00 +17°C° 0 mm 3 m/s 752 mmHg 71%
    23:00 +16°C° 0 mm 3 m/s 752 mmHg 69%

    25 Juin, Mardi

    Heure Température Précipitation Vent Pression Humidité
    00:00 +17°C° 0 mm 3 m/s 752 mmHg 68%
    01:00 +17°C° 0 mm 3 m/s 753 mmHg 67%
    02:00 +17°C° 0 mm 3 m/s 753 mmHg 66%
    03:00 +17°C° 0 mm 3 m/s 752 mmHg 69%
    04:00 +17°C° 0 mm 3 m/s 752 mmHg 72%
    05:00 +16°C° 0 mm 3 m/s 752 mmHg 75%
    06:00 +17°C° 0 mm 4 m/s 752 mmHg 74%
    07:00 +18°C° 0 mm 4 m/s 752 mmHg 72%
    08:00 +18°C° 0 mm 4 m/s 752 mmHg 71%
    09:00 +19°C° 0 mm 3 m/s 752 mmHg 71%
    10:00 +19°C° 0 mm 3 m/s 752 mmHg 70%
    11:00 +19°C° 0 mm 2 m/s 752 mmHg 70%
    12:00 +19°C° 0 mm 2 m/s 752 mmHg 69%
    13:00 +20°C° 0 mm 2 m/s 751 mmHg 69%
    14:00 +20°C° 0 mm 2 m/s 751 mmHg 68%
    15:00 +21°C° 0 mm 1 m/s 751 mmHg 67%
    16:00 +22°C° 0 mm 1 m/s 751 mmHg 65%
    17:00 +20°C° 0 mm 0 m/s 750 mmHg 64%
    18:00 +18°C° 0 mm 0 m/s 750 mmHg 69%
    19:00 +19°C° 0 mm 1 m/s 750 mmHg 73%
    20:00 +16°C° 0 mm 1 m/s 750 mmHg 78%
    21:00 +16°C° 0 mm 1 m/s 750 mmHg 80%
    22:00 +15°C° 0 mm 1 m/s 750 mmHg 81%
    23:00 +15°C° 0 mm 1 m/s 749 mmHg 83%
    Voir plus